Location: Boissi�res
(45.2500°N, 2.3667°E)
Time: 00:07:48
(UTC+00:00)

ISS - Pass Details

Date: 22 September 2021
Orbit: 417 x 423 km, 51.6° (Epoch: 18 October)

Event Time Altitude Azimuth Distance (km) Brightness Sun altitude
Rises 20:27:22 0° 289° (WNW) 2,365 1.3 -27.6°
Reaches altitude 10° 20:29:41 10° 302° (WNW) 1,502 0.0 -27.9°
Enters shadow 20:31:06 19° 321° (NW) 1,072 -1.0 -28.1°
